LEMUR-2-BEAUDACIOUS (44085 NORAD) Tracking and Keplerian Element Data

This shows tracking and keplerian element data for the satellite.

Feedback or suggestion? Click here.




ElementValue
Catalog44085
NameLEMUR-2-BEAUDACIOUS
Epoch Orbit431
Epoch Day119.68502069
Epoch Year2019
RAAN179.9949
Inclination97.4612
Eccentricity0.0014001
Argument of Perigee176.0467
Mean Anonmoly184.0882
Mean Motion15.2148417
Decay Rate1.852E-05
L11 44085U 19018H 19119.68502069 .00001852 00000-0 85306-4 0 9999
L22 44085 97.4612 179.9949 0014001 176.0467 184.0882 15.21484170 4319

Live tracking and technical data element details for LEMUR-2-BEAUDACIOUS (NORAD 44085). LEMUR-2-BEAUDACIOUS can be tracked NOW for your location showing map with azimuth and elevation plus other details from your city location.

Track the satellite on the map from your city or location and see movement details for azimuth, elevation, latitude, longitude, range, height, and movement on the map or in text.







IsCatalogInMostPopularTable: catalog: 44085, numindb: 18
Update: records affected: 1



GetName: 44085 LEMUR-2-BEAUDACIOUS

Hit Count: updated at: Sat, 20 Jul 2019 00:01:36 GMT